Superior, WI

6:41 AM CDT on August 19, 2017 (GMT -0500)
Bong

Weather History for KSUW - November, 2012

Change the Weather History Date:

Saturday, November 24, 2012

  Actual Average Record
Temperature  
Mean Temperature 12 °F -  
Max Temperature 22 °F 32 °F 55 °F (2006)
Min Temperature 3 °F 16 °F -8 °F (1985)
Degree Days  
Heating Degree Days 52    
Moisture  
Dew Point 10 °F    
Average Humidity 82    
Maximum Humidity 94    
Minimum Humidity 66    
Precipitation  
Precipitation 0.05 in - - ()
Sea Level Pressure  
Sea Level Pressure 30.10 in    
Wind  
Wind Speed 5 mph (SW)    
Max Wind Speed 8 mph    
Max Gust Speed -    
Visibility 9 miles    
Events Snow    
Averages and records for this station are not official NWS values.
T = Trace of Precipitation, MM = Missing Value Source: NWS Daily Summary

Daily Weather History Graph

Daily Weather History Graph

Search for Another Location

Airport or City:

Trip Planner

Search our weather history database for the weather conditions in past years. The results will help you decide how hot, cold, wet, or windy it might be!

Date:

Astronomy

Nov. 24, 2012 Rise Set
Actual Time 7:24 AM CST 4:26 PM CST
Civil Twilight 6:50 AM CST 4:59 PM CST
Nautical Twilight 6:12 AM CST 5:37 PM CST
Astronomical Twilight 5:36 AM CST 6:13 PM CST
Moon 2:20 PM CST (11/24) 3:30 AM CST (11/24)
Length of Visible Light 10h 09m
Length of Day
9h 02m
Waxing Gibbous, 87% of the Moon is Illuminated
Nov 24
Waxing Gibbous
Nov 28
Full
Dec 6
Last Quarter
Dec 13
New
Dec 19
First Quarter

Hourly Weather History & Observations

Time (CST) Temp. Windchill Dew Point Humidity Pressure Visibility Wind Dir Wind Speed Gust Speed Precip Events Conditions
12:15 AM 12.4 °F 3.1 °F 6.6 °F 78% 30.32 in 10.0 mi WNW 5.8 mph - N/A   Scattered Clouds
12:35 AM 12.2 °F 4.3 °F 6.8 °F 79% 30.32 in 10.0 mi WNW 4.6 mph - N/A   Clear
12:55 AM 9.9 °F 1.6 °F 5.2 °F 81% 30.32 in 10.0 mi NW 4.6 mph - N/A   Clear
1:15 AM 11.1 °F 1.7 °F 5.7 °F 79% 30.31 in 10.0 mi NW 5.8 mph - N/A   Clear
1:35 AM 11.1 °F 0.4 °F 5.2 °F 77% 30.31 in 10.0 mi NNW 6.9 mph - N/A   Clear
1:55 AM 10.8 °F 2.7 °F 6.3 °F 82% 30.30 in 10.0 mi NNW 4.6 mph - N/A   Clear
2:15 AM 8.1 °F -2.0 °F 4.6 °F 86% 30.31 in 10.0 mi NW 5.8 mph - N/A   Clear
2:35 AM 7.7 °F -2.4 °F 4.5 °F 87% 30.31 in 10.0 mi WNW 5.8 mph - N/A   Clear
2:55 AM 7.7 °F -3.7 °F 4.5 °F 87% 30.30 in 10.0 mi WNW 6.9 mph - N/A   Clear
3:15 AM 9.3 °F -1.7 °F 5.9 °F 86% 30.30 in 10.0 mi West 6.9 mph - N/A   Clear
3:55 AM 8.6 °F -1.3 °F 4.6 °F 84% 30.29 in 10.0 mi WNW 5.8 mph - N/A   Clear
4:15 AM 7.3 °F -4.1 °F 3.6 °F 85% 30.28 in 10.0 mi NW 6.9 mph - N/A   Clear
4:35 AM 7.2 °F - 4.1 °F 87% 30.28 in 10.0 mi Calm Calm - N/A   Clear
4:55 AM 7.5 °F -3.9 °F 5.2 °F 90% 30.28 in 10.0 mi West 6.9 mph - N/A   Clear
5:15 AM 7.3 °F - 4.1 °F 87% 30.28 in 10.0 mi Calm Calm - N/A   Clear
5:35 AM 5.7 °F -4.8 °F 3.2 °F 89% 30.27 in 10.0 mi SW 5.8 mph - N/A   Clear
5:55 AM 4.3 °F -7.8 °F 1.8 °F 89% 30.28 in 10.0 mi SW 6.9 mph - N/A   Clear
6:15 AM 3.9 °F -6.9 °F 1.2 °F 89% 30.29 in 10.0 mi SSW 5.8 mph - N/A   Scattered Clouds
6:35 AM 5.7 °F -6.1 °F 2.7 °F 87% 30.28 in 10.0 mi SW 6.9 mph - N/A   Scattered Clouds
6:55 AM 5.9 °F -4.5 °F 2.7 °F 87% 30.28 in 10.0 mi SW 5.8 mph - N/A   Clear
7:15 AM 4.3 °F -6.5 °F 1.4 °F 88% 30.27 in 10.0 mi SW 5.8 mph - N/A   Clear
7:35 AM 3.2 °F -6.2 °F 0.5 °F 89% 30.26 in 10.0 mi South 4.6 mph - N/A   Clear
7:55 AM 4.3 °F -4.9 °F 1.4 °F 88% 30.25 in 10.0 mi SSW 4.6 mph - N/A   Clear
8:15 AM 6.1 °F -4.3 °F 3.0 °F 87% 30.25 in 10.0 mi SW 5.8 mph - N/A   Clear
8:35 AM 7.2 °F -4.3 °F 3.6 °F 85% 30.25 in 10.0 mi SW 6.9 mph - N/A   Clear
8:55 AM 8.4 °F -3.9 °F 4.3 °F 83% 30.24 in 10.0 mi WSW 8.1 mph - N/A   Clear
9:15 AM 9.5 °F -2.6 °F 5.0 °F 82% 30.24 in 10.0 mi SW 8.1 mph - N/A   Clear
9:35 AM 10.8 °F 2.7 °F 5.9 °F 81% 30.23 in 10.0 mi SW 4.6 mph - N/A   Clear
9:55 AM 12.2 °F 2.9 °F 6.8 °F 79% 30.22 in 10.0 mi WSW 5.8 mph - N/A   Clear
10:15 AM 13.3 °F 5.6 °F 7.5 °F 78% 30.21 in 10.0 mi SW 4.6 mph - N/A   Clear
10:35 AM 13.8 °F 6.2 °F 8.2 °F 78% 30.20 in 10.0 mi WSW 4.6 mph - N/A   Clear
10:55 AM 15.6 °F 8.3 °F 9.1 °F 76% 30.19 in 10.0 mi SW 4.6 mph - N/A   Clear
11:15 AM 16.5 °F 8.1 °F 10.0 °F 76% 30.16 in 10.0 mi SW 5.8 mph - N/A   Clear
11:35 AM 17.6 °F 9.3 °F 10.4 °F 73% 30.15 in 10.0 mi WSW 5.8 mph - N/A   Clear
11:55 AM 18.5 °F - 10.8 °F 72% 30.13 in 10.0 mi Calm Calm - N/A   Clear
12:15 PM 19.8 °F 11.9 °F 11.1 °F 69% 30.12 in 10.0 mi WSW 5.8 mph - N/A   Clear
12:35 PM 19.8 °F 14.7 °F 11.1 °F 69% 30.11 in 10.0 mi SSW 3.5 mph - N/A   Scattered Clouds
12:55 PM 20.5 °F - 11.7 °F 69% 30.08 in 10.0 mi Calm Calm - N/A   Overcast
1:15 PM 20.8 °F - 12.0 °F 69% 30.08 in 10.0 mi Calm Calm - N/A   Overcast
1:35 PM 21.2 °F - 12.6 °F 69% 30.05 in 10.0 mi Calm Calm - N/A   Overcast
1:55 PM 22.1 °F - 12.7 °F 67% 30.04 in 10.0 mi Calm Calm - N/A   Overcast
2:15 PM 22.1 °F 12.8 °F 12.9 °F 68% 30.04 in 10.0 mi SSW 8.1 mph - N/A   Overcast
2:35 PM 21.9 °F 13.4 °F 12.2 °F 66% 30.04 in 10.0 mi South 6.9 mph - N/A   Overcast
2:55 PM 21.9 °F 14.5 °F 12.6 °F 67% 30.03 in 10.0 mi SSW 5.8 mph - N/A   Overcast
3:15 PM 21.7 °F 17.0 °F 12.9 °F 69% 30.01 in 10.0 mi SSE 3.5 mph - N/A   Overcast
3:35 PM 21.2 °F 11.7 °F 13.1 °F 71% 29.99 in 10.0 mi SSE 8.1 mph - N/A   Overcast
3:55 PM 21.2 °F 13.6 °F 12.9 °F 70% 29.99 in 10.0 mi SSE 5.8 mph - N/A   Overcast
4:15 PM 21.2 °F 16.4 °F 12.7 °F 70% 30.00 in 10.0 mi SSW 3.5 mph - N/A   Overcast
4:35 PM 21.2 °F 14.9 °F 14.0 °F 74% 29.97 in 10.0 mi SSE 4.6 mph - N/A   Overcast
4:55 PM 21.2 °F 13.6 °F 13.8 °F 73% 29.95 in 10.0 mi SE 5.8 mph - N/A   Overcast
5:15 PM 21.2 °F 14.9 °F 14.0 °F 74% 29.93 in 10.0 mi SE 4.6 mph - N/A   Overcast
5:35 PM 21.2 °F 16.4 °F 13.8 °F 73% 29.92 in 10.0 mi SE 3.5 mph - N/A   Overcast
5:55 PM 21.2 °F - 14.5 °F 75% 29.90 in 10.0 mi Calm Calm - N/A   Overcast
6:15 PM 21.0 °F 14.6 °F 15.1 °F 78% 29.89 in 5.0 mi East 4.6 mph - N/A   Haze
6:35 PM 20.8 °F - 15.8 °F 81% 29.90 in 10.0 mi Calm Calm - N/A   Overcast
6:55 PM 20.7 °F - 16.5 °F 84% 29.89 in 10.0 mi Calm Calm - N/A   Overcast
7:15 PM 20.8 °F 16.0 °F 16.7 °F 84% 29.91 in 10.0 mi NW 3.5 mph - N/A   Overcast
7:35 PM 20.3 °F - 18.1 °F 91% 29.90 in 1.0 mi Calm Calm - N/A Snow Snow
7:55 PM 20.1 °F - 18.5 °F 93% 29.89 in 1.2 mi Calm Calm - N/A Snow Snow
8:15 PM 20.1 °F - 18.5 °F 93% 29.87 in 1.2 mi Calm Calm - N/A Snow Snow
8:35 PM 20.1 °F - 18.5 °F 93% 29.86 in 1.2 mi Calm Calm - N/A Snow Light Snow
8:55 PM 20.1 °F - 18.5 °F 93% 29.86 in 1.2 mi Calm Calm - 0.03 in Snow Light Snow
9:15 PM 20.1 °F - 18.5 °F 93% 29.85 in 1.0 mi Calm Calm - 0.01 in Snow Snow
9:35 PM 20.1 °F - 18.5 °F 93% 29.84 in 2.5 mi Calm Calm - 0.02 in Snow Light Snow
9:55 PM 19.9 °F - 18.5 °F 94% 29.83 in 4.0 mi Calm Calm - 0.02 in Snow Light Snow
10:15 PM 20.1 °F - 18.5 °F 93% 29.82 in 10.0 mi Calm Calm - N/A   Overcast
10:35 PM 20.1 °F - 18.5 °F 93% 29.81 in 10.0 mi Calm Calm - N/A   Overcast
10:55 PM 20.3 °F - 18.5 °F 93% 29.81 in 10.0 mi Calm Calm - N/A   Overcast
11:15 PM 20.3 °F - 18.5 °F 93% 29.81 in 10.0 mi Calm Calm - N/A   Overcast
11:35 PM 20.8 °F 14.4 °F 18.9 °F 92% 29.81 in 10.0 mi West 4.6 mph - N/A   Overcast
11:55 PM 21.2 °F 16.4 °F 18.9 °F 91% 29.80 in 10.0 mi West 3.5 mph - N/A   Overcast